Wetterdaten: Mittwoch, 12.11.2014
Datum Zeit Temperatur Luftfeuchte Luftdruck Regen Wind Richtung Richtung Taupunkt Windchill Windben
12.11.2014 00:00 8,3 C 78 % 1006,4 hPa 0,0 l/m 0,0 km/h (0 Bft) SO 135 4,7 C 7,8 C 0,0 km/h (0 Bft)
12.11.2014 00:05 8,6 C 78 % 1006,4 hPa 0,0 l/m 0,0 km/h (0 Bft) SO 135 5,0 C 7,8 C 0,0 km/h (0 Bft)
12.11.2014 00:10 8,4 C 77 % 1006,4 hPa 0,0 l/m 0,0 km/h (0 Bft) SO 135 4,6 C 7,8 C 0,0 km/h (0 Bft)
12.11.2014 00:15 8,7 C 76 % 1005,9 hPa 0,0 l/m 0,0 km/h (0 Bft) SO 135 4,7 C 7,8 C 0,0 km/h (0 Bft)
12.11.2014 00:18 8,4 C 75 % 1005,9 hPa 0,0 l/m 0,0 km/h (0 Bft) SO 135 4,2 C 7,8 C 0,0 km/h (0 Bft)
12.11.2014 00:20 8,4 C 75 % 1005,9 hPa 0,0 l/m 0,0 km/h (0 Bft) SO 135 4,2 C 7,8 C 0,0 km/h (0 Bft)
12.11.2014 00:25 8,2 C 75 % 1005,9 hPa 0,0 l/m 0,0 km/h (0 Bft) SO 135 4,0 C 7,8 C 0,0 km/h (0 Bft)
12.11.2014 00:30 8,7 C 75 % 1005,9 hPa 0,0 l/m 0,0 km/h (0 Bft) SO 135 4,5 C 7,8 C 0,0 km/h (0 Bft)
12.11.2014 00:35 9,2 C 74 % 1005,9 hPa 0,0 l/m 0,0 km/h (0 Bft) SO 135 4,8 C 7,8 C 0,0 km/h (0 Bft)
12.11.2014 00:40 9,1 C 72 % 1005,9 hPa 0,0 l/m 0,0 km/h (0 Bft) SO 135 4,3 C 7,8 C 0,0 km/h (0 Bft)
12.11.2014 00:45 8,8 C 72 % 1005,9 hPa 0,0 l/m 0,0 km/h (0 Bft) SO 135 4,0 C 7,8 C 0,0 km/h (0 Bft)
12.11.2014 00:50 7,9 C 73 % 1005,9 hPa 0,0 l/m 0,0 km/h (0 Bft) SO 135 3,4 C 7,8 C 0,0 km/h (0 Bft)
12.11.2014 00:55 7,9 C 73 % 1005,9 hPa 0,0 l/m 0,0 km/h (0 Bft) SO 135 3,4 C 7,8 C 0,0 km/h (0 Bft)
12.11.2014 01:00 8,5 C 73 % 1005,9 hPa 0,0 l/m 0,0 km/h (0 Bft) SO 135 3,9 C 7,8 C 0,0 km/h (0 Bft)
12.11.2014 01:05 8,4 C 72 % 1005,9 hPa 0,0 l/m 0,0 km/h (0 Bft) SO 135 3,7 C 7,8 C 0,0 km/h (0 Bft)
12.11.2014 01:10 8,1 C 72 % 1005,9 hPa 0,0 l/m 0,0 km/h (0 Bft) SO 135 3,4 C 7,8 C 0,0 km/h (0 Bft)
12.11.2014 01:15 7,9 C 74 % 1005,6 hPa 0,0 l/m 0,0 km/h (0 Bft) SO 135 3,6 C 7,8 C 0,0 km/h (0 Bft)
12.11.2014 01:20 8,7 C 73 % 1005,6 hPa 0,0 l/m 0,0 km/h (0 Bft) SO 135 4,1 C 7,8 C 0,0 km/h (0 Bft)
12.11.2014 01:25 8,3 C 73 % 1005,6 hPa 0,0 l/m 0,0 km/h (0 Bft) SO 135 3,8 C 7,8 C 0,0 km/h (0 Bft)
12.11.2014 01:30 7,4 C 74 % 1005,6 hPa 0,0 l/m 0,0 km/h (0 Bft) SO 135 3,1 C 7,8 C 0,0 km/h (0 Bft)
12.11.2014 01:35 7,2 C 75 % 1005,4 hPa 0,0 l/m 0,0 km/h (0 Bft) SO 135 3,1 C 7,8 C 0,0 km/h (0 Bft)
12.11.2014 01:40 7,2 C 75 % 1005,4 hPa 0,0 l/m 0,0 km/h (0 Bft) SO 135 3,1 C 7,8 C 0,0 km/h (0 Bft)
12.11.2014 01:45 7,5 C 76 % 1005,4 hPa 0,0 l/m 0,0 km/h (0 Bft) SO 135 3,5 C 7,8 C 0,0 km/h (0 Bft)
12.11.2014 01:50 7,1 C 76 % 1005,4 hPa 0,0 l/m 0,0 km/h (0 Bft) SO 135 3,2 C 7,8 C 0,0 km/h (0 Bft)
12.11.2014 01:55 6,9 C 76 % 1005,4 hPa 0,0 l/m 0,0 km/h (0 Bft) SO 135 3,0 C 7,8 C 0,0 km/h (0 Bft)
12.11.2014 02:00 7,0 C 76 % 1005,4 hPa 0,0 l/m 0,0 km/h (0 Bft) SO 135 3,1 C 7,8 C 0,0 km/h (0 Bft)
12.11.2014 02:05 7,1 C 77 % 1005,4 hPa 0,0 l/m 0,0 km/h (0 Bft) SO 135 3,3 C 7,8 C 0,0 km/h (0 Bft)
12.11.2014 02:10 7,6 C 77 % 1005,4 hPa 0,0 l/m 0,0 km/h (0 Bft) SO 135 3,8 C 7,8 C 0,0 km/h (0 Bft)
12.11.2014 02:15 7,8 C 76 % 1005,5 hPa 0,0 l/m 0,0 km/h (0 Bft) SO 135 3,8 C 7,8 C 0,0 km/h (0 Bft)
12.11.2014 02:20 8,4 C 76 % 1005,5 hPa 0,0 l/m 0,0 km/h (0 Bft) SO 135 4,4 C 7,8 C 0,0 km/h (0 Bft)
12.11.2014 02:25 8,4 C 74 % 1005,5 hPa 0,0 l/m 0,0 km/h (0 Bft) SO 135 4,0 C 7,8 C 0,0 km/h (0 Bft)
12.11.2014 02:30 7,2 C 74 % 1005,5 hPa 0,0 l/m 0,0 km/h (0 Bft) SO 135 2,9 C 7,8 C 0,0 km/h (0 Bft)
12.11.2014 02:35 6,7 C 76 % 1005,3 hPa 0,0 l/m 0,0 km/h (0 Bft) SO 135 2,8 C 7,8 C 0,0 km/h (0 Bft)
12.11.2014 02:40 7,0 C 77 % 1005,3 hPa 0,0 l/m 0,0 km/h (0 Bft) SO 135 3,2 C 7,8 C 0,0 km/h (0 Bft)
12.11.2014 02:45 7,3 C 77 % 1005,3 hPa 0,0 l/m 0,0 km/h (0 Bft) SO 135 3,5 C 7,8 C 0,0 km/h (0 Bft)
12.11.2014 02:50 7,7 C 77 % 1005,3 hPa 0,0 l/m 0,0 km/h (0 Bft) SO 135 3,9 C 7,8 C 0,0 km/h (0 Bft)
12.11.2014 02:55 8,2 C 76 % 1005,2 hPa 0,0 l/m 0,0 km/h (0 Bft) SO 135 4,2 C 7,8 C 0,0 km/h (0 Bft)
12.11.2014 03:00 7,7 C 75 % 1005,2 hPa 0,0 l/m 0,0 km/h (0 Bft) SO 135 3,6 C 7,8 C 0,0 km/h (0 Bft)
12.11.2014 03:05 7,6 C 76 % 1005,2 hPa 0,0 l/m 0,0 km/h (0 Bft) SO 135 3,6 C 7,8 C 0,0 km/h (0 Bft)
12.11.2014 03:10 7,8 C 76 % 1005,2 hPa 0,0 l/m 0,0 km/h (0 Bft) SO 135 3,8 C 7,8 C 0,0 km/h (0 Bft)
12.11.2014 03:15 7,9 C 76 % 1005,0 hPa 0,0 l/m 0,0 km/h (0 Bft) SO 135 3,9 C 7,8 C 0,0 km/h (0 Bft)
12.11.2014 03:18 7,7 C 75 % 1005,0 hPa 0,0 l/m 0,0 km/h (0 Bft) SO 135 3,6 C 7,8 C 0,0 km/h (0 Bft)
12.11.2014 03:20 7,7 C 75 % 1005,0 hPa 0,0 l/m 0,0 km/h (0 Bft) SO 135 3,6 C 7,8 C 0,0 km/h (0 Bft)
12.11.2014 03:25 7,7 C 76 % 1005,0 hPa 0,0 l/m 0,0 km/h (0 Bft) SO 135 3,7 C 7,8 C 0,0 km/h (0 Bft)
12.11.2014 03:30 7,5 C 76 % 1005,0 hPa 0,0 l/m 0,0 km/h (0 Bft) SO 135 3,5 C 7,8 C 0,0 km/h (0 Bft)
12.11.2014 03:35 7,3 C 76 % 1004,9 hPa 0,0 l/m 0,0 km/h (0 Bft) SO 135 3,4 C 7,8 C 0,0 km/h (0 Bft)
12.11.2014 03:40 7,1 C 76 % 1004,9 hPa 0,0 l/m 0,0 km/h (0 Bft) SO 135 3,2 C 7,8 C 0,0 km/h (0 Bft)
12.11.2014 03:45 7,1 C 76 % 1004,9 hPa 0,0 l/m 0,0 km/h (0 Bft) SO 135 3,2 C 7,8 C 0,0 km/h (0 Bft)
12.11.2014 03:50 7,0 C 77 % 1004,9 hPa 0,0 l/m 0,0 km/h (0 Bft) SO 135 3,2 C 7,8 C 0,0 km/h (0 Bft)
12.11.2014 03:55 7,5 C 77 % 1004,8 hPa 0,0 l/m 0,0 km/h (0 Bft) SO 135 3,7 C 7,8 C 0,0 km/h (0 Bft)
12.11.2014 04:00 8,4 C 76 % 1004,8 hPa 0,0 l/m 0,0 km/h (0 Bft) SO 135 4,4 C 7,8 C 0,0 km/h (0 Bft)
12.11.2014 04:05 8,2 C 76 % 1004,8 hPa 0,0 l/m 0,0 km/h (0 Bft) SO 135 4,2 C 7,8 C 0,0 km/h (0 Bft)
12.11.2014 04:10 8,1 C 75 % 1004,8 hPa 0,0 l/m 0,0 km/h (0 Bft) SO 135 3,9 C 7,8 C 0,0 km/h (0 Bft)
12.11.2014 04:15 9,2 C 74 % 1004,6 hPa 0,0 l/m 0,0 km/h (0 Bft) SO 135 4,8 C 7,8 C 0,0 km/h (0 Bft)
12.11.2014 04:20 9,2 C 71 % 1004,6 hPa 0,0 l/m 0,0 km/h (0 Bft) SO 135 4,2 C 7,8 C 0,0 km/h (0 Bft)
12.11.2014 04:25 8,6 C 71 % 1004,6 hPa 0,0 l/m 0,0 km/h (0 Bft) SO 135 3,6 C 7,8 C 0,0 km/h (0 Bft)
12.11.2014 04:30 7,7 C 72 % 1004,6 hPa 0,0 l/m 0,0 km/h (0 Bft) SO 135 3,0 C 7,8 C 0,0 km/h (0 Bft)
12.11.2014 04:35 7,6 C 73 % 1004,6 hPa 0,0 l/m 0,0 km/h (0 Bft) SO 135 3,1 C 7,8 C 0,0 km/h (0 Bft)
12.11.2014 04:40 8,1 C 73 % 1004,6 hPa 0,0 l/m 0,0 km/h (0 Bft) SO 135 3,6 C 7,8 C 0,0 km/h (0 Bft)
12.11.2014 04:45 7,9 C 73 % 1004,6 hPa 0,0 l/m 0,0 km/h (0 Bft) SO 135 3,4 C 7,8 C 0,0 km/h (0 Bft)
12.11.2014 04:50 7,7 C 73 % 1004,6 hPa 0,0 l/m 0,0 km/h (0 Bft) SO 135 3,2 C 7,8 C 0,0 km/h (0 Bft)
12.11.2014 04:55 7,8 C 74 % 1004,6 hPa 0,0 l/m 0,0 km/h (0 Bft) SO 135 3,5 C 7,8 C 0,0 km/h (0 Bft)
12.11.2014 05:00 8,4 C 74 % 1004,6 hPa 0,0 l/m 0,0 km/h (0 Bft) SO 135 4,0 C 7,8 C 0,0 km/h (0 Bft)
12.11.2014 05:05 8,5 C 73 % 1004,6 hPa 0,0 l/m 0,0 km/h (0 Bft) SO 135 3,9 C 7,8 C 0,0 km/h (0 Bft)
12.11.2014 05:10 8,9 C 73 % 1004,6 hPa 0,0 l/m 0,0 km/h (0 Bft) SO 135 4,3 C 7,8 C 0,0 km/h (0 Bft)
12.11.2014 05:15 9,3 C 71 % 1004,7 hPa 0,0 l/m 0,0 km/h (0 Bft) SO 135 4,3 C 7,8 C 0,0 km/h (0 Bft)
12.11.2014 05:20 9,3 C 70 % 1004,7 hPa 0,0 l/m 0,0 km/h (0 Bft) SO 135 4,1 C 7,8 C 0,0 km/h (0 Bft)
12.11.2014 05:25 8,7 C 70 % 1004,7 hPa 0,0 l/m 0,0 km/h (0 Bft) SO 135 3,5 C 7,8 C 0,0 km/h (0 Bft)
12.11.2014 05:30 9,4 C 70 % 1004,7 hPa 0,0 l/m 0,0 km/h (0 Bft) SO 135 4,2 C 7,8 C 0,0 km/h (0 Bft)
12.11.2014 05:35 9,3 C 69 % 1004,6 hPa 0,0 l/m 0,0 km/h (0 Bft) SO 135 3,9 C 7,8 C 0,0 km/h (0 Bft)
12.11.2014 05:40 9,4 C 68 % 1004,6 hPa 0,0 l/m 0,0 km/h (0 Bft) SO 135 3,8 C 7,8 C 0,0 km/h (0 Bft)
12.11.2014 05:45 9,5 C 68 % 1004,6 hPa 0,0 l/m 0,0 km/h (0 Bft) SO 135 3,9 C 7,8 C 0,0 km/h (0 Bft)
12.11.2014 05:50 9,4 C 68 % 1004,6 hPa 0,0 l/m 0,0 km/h (0 Bft) SO 135 3,8 C 7,8 C 0,0 km/h (0 Bft)
12.11.2014 05:55 9,5 C 68 % 1004,9 hPa 0,0 l/m 0,0 km/h (0 Bft) SO 135 3,9 C 7,8 C 0,0 km/h (0 Bft)
12.11.2014 06:00 8,9 C 69 % 1004,9 hPa 0,0 l/m 0,0 km/h (0 Bft) SO 135 3,5 C 7,8 C 0,0 km/h (0 Bft)
12.11.2014 06:05 8,9 C 69 % 1004,9 hPa 0,0 l/m 0,0 km/h (0 Bft) SO 135 3,5 C 7,8 C 0,0 km/h (0 Bft)
12.11.2014 06:10 9,2 C 69 % 1004,9 hPa 0,0 l/m 0,0 km/h (0 Bft) SO 135 3,8 C 7,8 C 0,0 km/h (0 Bft)
12.11.2014 06:15 8,8 C 69 % 1005,1 hPa 0,0 l/m 0,0 km/h (0 Bft) SO 135 3,4 C 7,8 C 0,0 km/h (0 Bft)
12.11.2014 06:18 8,4 C 70 % 1005,1 hPa 0,0 l/m 0,0 km/h (0 Bft) SO 135 3,3 C 7,8 C 0,0 km/h (0 Bft)
12.11.2014 06:25 8,5 C 70 % 1005,1 hPa 0,0 l/m 0,0 km/h (0 Bft) SO 135 3,3 C 7,8 C 0,0 km/h (0 Bft)
12.11.2014 06:30 8,4 C 70 % 1005,1 hPa 0,0 l/m 0,0 km/h (0 Bft) SO 135 3,3 C 7,8 C 0,0 km/h (0 Bft)
12.11.2014 06:35 8,3 C 70 % 1005,4 hPa 0,0 l/m 0,0 km/h (0 Bft) SO 135 3,2 C 7,8 C 0,0 km/h (0 Bft)
12.11.2014 06:40 8,4 C 70 % 1005,4 hPa 0,0 l/m 0,0 km/h (0 Bft) SO 135 3,3 C 7,8 C 0,0 km/h (0 Bft)
12.11.2014 06:45 8,3 C 70 % 1005,4 hPa 0,0 l/m 0,0 km/h (0 Bft) SO 135 3,2 C 7,8 C 0,0 km/h (0 Bft)
12.11.2014 06:50 8,3 C 70 % 1005,4 hPa 0,0 l/m 0,0 km/h (0 Bft) SO 135 3,2 C 7,8 C 0,0 km/h (0 Bft)
12.11.2014 06:55 8,4 C 71 % 1005,4 hPa 0,0 l/m 0,0 km/h (0 Bft) SO 135 3,5 C 7,8 C 0,0 km/h (0 Bft)
12.11.2014 07:00 8,3 C 71 % 1005,4 hPa 0,0 l/m 0,0 km/h (0 Bft) SO 135 3,4 C 7,8 C 0,0 km/h (0 Bft)
12.11.2014 07:05 8,2 C 71 % 1005,4 hPa 0,0 l/m 0,0 km/h (0 Bft) SO 135 3,3 C 7,8 C 0,0 km/h (0 Bft)
12.11.2014 07:10 8,8 C 70 % 1005,4 hPa 0,0 l/m 0,0 km/h (0 Bft) SO 135 3,6 C 7,8 C 0,0 km/h (0 Bft)
12.11.2014 07:15 9,0 C 70 % 1005,2 hPa 0,0 l/m 0,0 km/h (0 Bft) SO 135 3,8 C 7,8 C 0,0 km/h (0 Bft)
12.11.2014 07:20 8,8 C 70 % 1005,2 hPa 0,0 l/m 0,0 km/h (0 Bft) SO 135 3,6 C 7,8 C 0,0 km/h (0 Bft)
12.11.2014 07:25 8,8 C 70 % 1005,2 hPa 0,0 l/m 0,0 km/h (0 Bft) SO 135 3,6 C 7,8 C 0,0 km/h (0 Bft)
12.11.2014 07:30 8,5 C 70 % 1005,2 hPa 0,0 l/m 0,0 km/h (0 Bft) SO 135 3,3 C 7,8 C 0,0 km/h (0 Bft)
12.11.2014 07:35 8,6 C 70 % 1005,1 hPa 0,0 l/m 0,0 km/h (0 Bft) SO 135 3,4 C 7,8 C 0,0 km/h (0 Bft)
12.11.2014 07:40 9,0 C 70 % 1005,1 hPa 0,0 l/m 0,0 km/h (0 Bft) SO 135 3,8 C 7,8 C 0,0 km/h (0 Bft)
12.11.2014 07:45 8,8 C 70 % 1005,1 hPa 0,0 l/m 0,0 km/h (0 Bft) SO 135 3,6 C 7,8 C 0,0 km/h (0 Bft)
12.11.2014 07:50 8,9 C 70 % 1005,1 hPa 0,0 l/m 0,0 km/h (0 Bft) SO 135 3,7 C 7,8 C 0,0 km/h (0 Bft)
12.11.2014 07:55 9,0 C 69 % 1005,2 hPa 0,0 l/m 0,0 km/h (0 Bft) SO 135 3,6 C 7,8 C 0,0 km/h (0 Bft)
12.11.2014 08:00 9,4 C 69 % 1005,2 hPa 0,0 l/m 0,0 km/h (0 Bft) SO 135 4,0 C 7,8 C 0,0 km/h (0 Bft)
12.11.2014 08:05 9,4 C 69 % 1005,2 hPa 0,0 l/m 0,0 km/h (0 Bft) SO 135 4,0 C 7,8 C 0,0 km/h (0 Bft)
12.11.2014 08:10 9,6 C 69 % 1005,2 hPa 0,0 l/m 0,0 km/h (0 Bft) SO 135 4,2 C 7,8 C 0,0 km/h (0 Bft)
12.11.2014 08:15 9,6 C 69 % 1005,1 hPa 0,0 l/m 0,0 km/h (0 Bft) SO 135 4,2 C 7,8 C 0,0 km/h (0 Bft)
12.11.2014 08:20 9,9 C 68 % 1005,1 hPa 0,0 l/m 0,0 km/h (0 Bft) SO 135 4,3 C 7,8 C 0,0 km/h (0 Bft)
12.11.2014 08:25 9,8 C 68 % 1005,1 hPa 0,0 l/m 0,0 km/h (0 Bft) SO 135 4,2 C 7,8 C 0,0 km/h (0 Bft)
12.11.2014 08:30 10,0 C 68 % 1005,1 hPa 0,0 l/m 0,0 km/h (0 Bft) SO 135 4,4 C 7,8 C 0,0 km/h (0 Bft)
12.11.2014 08:35 10,2 C 67 % 1005,2 hPa 0,0 l/m 0,0 km/h (0 Bft) SO 135 4,4 C 7,8 C 0,0 km/h (0 Bft)
12.11.2014 08:40 10,4 C 66 % 1005,2 hPa 0,0 l/m 0,0 km/h (0 Bft) SO 135 4,3 C 7,8 C 0,0 km/h (0 Bft)
12.11.2014 08:45 10,3 C 66 % 1005,2 hPa 0,0 l/m 0,0 km/h (0 Bft) SO 135 4,2 C 7,8 C 0,0 km/h (0 Bft)
12.11.2014 08:50 10,3 C 66 % 1005,2 hPa 0,0 l/m 0,0 km/h (0 Bft) SO 135 4,2 C 7,8 C 0,0 km/h (0 Bft)
12.11.2014 08:55 10,2 C 66 % 1005,4 hPa 0,0 l/m 0,0 km/h (0 Bft) SO 135 4,1 C 7,8 C 0,0 km/h (0 Bft)
12.11.2014 09:00 10,4 C 64 % 1005,4 hPa 0,0 l/m 0,0 km/h (0 Bft) SO 135 3,9 C 7,8 C 0,0 km/h (0 Bft)
12.11.2014 09:05 10,5 C 64 % 1005,4 hPa 0,0 l/m 0,0 km/h (0 Bft) SO 135 4,0 C 7,8 C 0,0 km/h (0 Bft)
12.11.2014 09:10 10,6 C 64 % 1005,4 hPa 0,0 l/m 0,0 km/h (0 Bft) SO 135 4,1 C 7,8 C 0,0 km/h (0 Bft)
12.11.2014 09:15 10,3 C 65 % 1005,8 hPa 0,0 l/m 0,0 km/h (0 Bft) SO 135 4,0 C 7,8 C 0,0 km/h (0 Bft)
12.11.2014 09:18 10,6 C 64 % 1005,8 hPa 0,0 l/m 0,0 km/h (0 Bft) SO 135 4,1 C 7,8 C 0,0 km/h (0 Bft)
12.11.2014 09:20 10,6 C 64 % 1005,8 hPa 0,0 l/m 0,0 km/h (0 Bft) SO 135 4,1 C 7,8 C 0,0 km/h (0 Bft)
12.11.2014 09:25 10,7 C 64 % 1005,8 hPa 0,0 l/m 0,0 km/h (0 Bft) SO 135 4,2 C 7,8 C 0,0 km/h (0 Bft)
12.11.2014 09:30 10,6 C 65 % 1005,8 hPa 0,0 l/m 0,0 km/h (0 Bft) SO 135 4,3 C 7,8 C 0,0 km/h (0 Bft)
12.11.2014 09:35 10,6 C 66 % 1005,8 hPa 0,0 l/m 0,0 km/h (0 Bft) SO 135 4,5 C 7,8 C 0,0 km/h (0 Bft)
12.11.2014 09:40 10,8 C 66 % 1005,8 hPa 0,0 l/m 0,0 km/h (0 Bft) SO 135 4,7 C 7,8 C 0,0 km/h (0 Bft)
12.11.2014 09:45 10,9 C 66 % 1005,8 hPa 0,0 l/m 0,0 km/h (0 Bft) SO 135 4,8 C 7,8 C 0,0 km/h (0 Bft)
12.11.2014 09:50 11,0 C 67 % 1005,8 hPa 0,0 l/m 0,0 km/h (0 Bft) SO 135 5,1 C 7,8 C 0,0 km/h (0 Bft)
12.11.2014 09:55 11,2 C 67 % 1006,0 hPa 0,0 l/m 0,0 km/h (0 Bft) SO 135 5,3 C 7,8 C 0,0 km/h (0 Bft)
12.11.2014 10:00 11,4 C 66 % 1006,0 hPa 0,0 l/m 0,0 km/h (0 Bft) SO 135 5,3 C 7,8 C 0,0 km/h (0 Bft)
12.11.2014 10:05 11,7 C 65 % 1006,0 hPa 0,0 l/m 0,0 km/h (0 Bft) SO 135 5,3 C 7,8 C 0,0 km/h (0 Bft)
12.11.2014 10:10 11,7 C 66 % 1006,0 hPa 0,0 l/m 0,0 km/h (0 Bft) SO 135 5,6 C 7,8 C 0,0 km/h (0 Bft)
12.11.2014 10:15 11,8 C 67 % 1006,1 hPa 0,0 l/m 0,0 km/h (0 Bft) SO 135 5,9 C 7,8 C 0,0 km/h (0 Bft)
12.11.2014 10:20 12,1 C 67 % 1006,1 hPa 0,0 l/m 0,0 km/h (0 Bft) SO 135 6,2 C 7,8 C 0,0 km/h (0 Bft)
12.11.2014 10:25 12,3 C 64 % 1006,1 hPa 0,0 l/m 0,0 km/h (0 Bft) SO 135 5,7 C 7,8 C 0,0 km/h (0 Bft)
12.11.2014 10:30 12,5 C 62 % 1006,1 hPa 0,0 l/m 0,0 km/h (0 Bft) SO 135 5,4 C 7,8 C 0,0 km/h (0 Bft)
12.11.2014 10:35 12,7 C 62 % 1006,2 hPa 0,0 l/m 0,0 km/h (0 Bft) SO 135 5,6 C 7,8 C 0,0 km/h (0 Bft)
12.11.2014 10:40 13,0 C 61 % 1006,2 hPa 0,0 l/m 0,0 km/h (0 Bft) SO 135 5,7 C 7,8 C 0,0 km/h (0 Bft)
12.11.2014 10:45 13,2 C 61 % 1006,2 hPa 0,0 l/m 0,0 km/h (0 Bft) SO 135 5,8 C 7,8 C 0,0 km/h (0 Bft)
12.11.2014 10:50 13,2 C 59 % 1006,2 hPa 0,0 l/m 0,0 km/h (0 Bft) SO 135 5,4 C 7,8 C 0,0 km/h (0 Bft)
12.11.2014 10:55 13,3 C 57 % 1006,4 hPa 0,0 l/m 0,0 km/h (0 Bft) SO 135 5,0 C 7,8 C 0,0 km/h (0 Bft)
12.11.2014 11:00 13,5 C 57 % 1006,4 hPa 0,0 l/m 0,0 km/h (0 Bft) SO 135 5,2 C 7,8 C 0,0 km/h (0 Bft)
12.11.2014 11:05 13,5 C 55 % 1006,4 hPa 0,0 l/m 0,0 km/h (0 Bft) SO 135 4,6 C 7,8 C 0,0 km/h (0 Bft)
12.11.2014 11:10 13,6 C 56 % 1006,4 hPa 0,0 l/m 0,0 km/h (0 Bft) SO 135 5,0 C 7,8 C 0,0 km/h (0 Bft)
12.11.2014 11:15 13,8 C 57 % 1006,3 hPa 0,0 l/m 0,0 km/h (0 Bft) SO 135 5,4 C 7,8 C 0,0 km/h (0 Bft)
12.11.2014 11:20 14,0 C 57 % 1006,3 hPa 0,0 l/m 0,0 km/h (0 Bft) SO 135 5,6 C 7,8 C 0,0 km/h (0 Bft)
12.11.2014 11:25 14,1 C 56 % 1006,3 hPa 0,0 l/m 0,0 km/h (0 Bft) SO 135 5,5 C 7,8 C 0,0 km/h (0 Bft)
12.11.2014 11:30 14,1 C 56 % 1006,3 hPa 0,0 l/m 0,0 km/h (0 Bft) SO 135 5,5 C 7,8 C 0,0 km/h (0 Bft)
12.11.2014 11:35 14,1 C 55 % 1006,4 hPa 0,0 l/m 0,0 km/h (0 Bft) SO 135 5,2 C 7,8 C 0,0 km/h (0 Bft)
12.11.2014 11:40 14,2 C 56 % 1006,4 hPa 0,0 l/m 0,0 km/h (0 Bft) SO 135 5,6 C 7,8 C 0,0 km/h (0 Bft)
12.11.2014 11:45 14,1 C 55 % 1006,4 hPa 0,0 l/m 0,0 km/h (0 Bft) SO 135 5,2 C 7,8 C 0,0 km/h (0 Bft)
12.11.2014 11:50 14,1 C 55 % 1006,4 hPa 0,0 l/m 0,0 km/h (0 Bft) SO 135 5,2 C 7,8 C 0,0 km/h (0 Bft)
12.11.2014 11:55 14,2 C 55 % 1006,3 hPa 0,0 l/m 0,0 km/h (0 Bft) SO 135 5,3 C 7,8 C 0,0 km/h (0 Bft)
12.11.2014 12:00 14,3 C 54 % 1006,3 hPa 0,0 l/m 0,0 km/h (0 Bft) SO 135 5,1 C 7,8 C 0,0 km/h (0 Bft)
12.11.2014 12:05 14,1 C 54 % 1006,3 hPa 0,0 l/m 0,0 km/h (0 Bft) SO 135 4,9 C 7,8 C 0,0 km/h (0 Bft)
12.11.2014 12:10 14,0 C 53 % 1006,3 hPa 0,0 l/m 0,0 km/h (0 Bft) SO 135 4,6 C 7,8 C 0,0 km/h (0 Bft)
12.11.2014 12:13 14,1 C 54 % 1006,4 hPa 0,0 l/m 0,0 km/h (0 Bft) SO 135 4,9 C 7,8 C 0,0 km/h (0 Bft)
12.11.2014 12:15 14,1 C 54 % 1006,4 hPa 0,0 l/m 0,0 km/h (0 Bft) SO 135 4,9 C 7,8 C 0,0 km/h (0 Bft)
12.11.2014 12:20 14,3 C 54 % 1006,4 hPa 0,0 l/m 0,0 km/h (0 Bft) SO 135 5,1 C 7,8 C 0,0 km/h (0 Bft)
12.11.2014 12:25 14,2 C 53 % 1006,4 hPa 0,0 l/m 0,0 km/h (0 Bft) SO 135 4,8 C 7,8 C 0,0 km/h (0 Bft)
12.11.2014 12:30 14,2 C 55 % 1006,4 hPa 0,0 l/m 0,0 km/h (0 Bft) SO 135 5,3 C 7,8 C 0,0 km/h (0 Bft)
12.11.2014 12:35 14,1 C 53 % 1006,6 hPa 0,0 l/m 0,0 km/h (0 Bft) SO 135 4,7 C 7,8 C 0,0 km/h (0 Bft)
12.11.2014 12:40 14,1 C 55 % 1006,6 hPa 0,0 l/m 0,0 km/h (0 Bft) SO 135 5,2 C 7,8 C 0,0 km/h (0 Bft)
12.11.2014 12:45 13,9 C 55 % 1006,6 hPa 0,0 l/m 0,0 km/h (0 Bft) SO 135 5,0 C 7,8 C 0,0 km/h (0 Bft)
12.11.2014 12:50 13,8 C 55 % 1006,6 hPa 0,0 l/m 0,0 km/h (0 Bft) SO 135 4,9 C 7,8 C 0,0 km/h (0 Bft)
12.11.2014 12:55 13,7 C 54 % 1006,2 hPa 0,0 l/m 0,0 km/h (0 Bft) SO 135 4,6 C 7,8 C 0,0 km/h (0 Bft)
12.11.2014 13:00 13,7 C 55 % 1006,2 hPa 0,0 l/m 0,0 km/h (0 Bft) SO 135 4,8 C 7,8 C 0,0 km/h (0 Bft)
12.11.2014 13:05 13,8 C 56 % 1006,2 hPa 0,0 l/m 0,0 km/h (0 Bft) SO 135 5,2 C 7,8 C 0,0 km/h (0 Bft)
12.11.2014 13:10 13,9 C 57 % 1006,2 hPa 0,0 l/m 0,0 km/h (0 Bft) SO 135 5,5 C 7,8 C 0,0 km/h (0 Bft)
12.11.2014 13:15 13,8 C 56 % 1006,3 hPa 0,0 l/m 0,0 km/h (0 Bft) SO 135 5,2 C 7,8 C 0,0 km/h (0 Bft)
12.11.2014 13:20 13,6 C 57 % 1006,3 hPa 0,0 l/m 0,0 km/h (0 Bft) SO 135 5,2 C 7,8 C 0,0 km/h (0 Bft)
12.11.2014 13:25 13,7 C 58 % 1006,3 hPa 0,0 l/m 0,0 km/h (0 Bft) SO 135 5,6 C 7,8 C 0,0 km/h (0 Bft)
12.11.2014 13:30 13,8 C 58 % 1006,3 hPa 0,0 l/m 0,0 km/h (0 Bft) SO 135 5,7 C 7,8 C 0,0 km/h (0 Bft)
12.11.2014 13:35 13,7 C 56 % 1006,2 hPa 0,0 l/m 0,0 km/h (0 Bft) SO 135 5,1 C 7,8 C 0,0 km/h (0 Bft)
12.11.2014 13:40 13,9 C 57 % 1006,2 hPa 0,0 l/m 0,0 km/h (0 Bft) SO 135 5,5 C 7,8 C 0,0 km/h (0 Bft)
12.11.2014 13:45 14,1 C 57 % 1006,2 hPa 0,0 l/m 0,0 km/h (0 Bft) SO 135 5,7 C 7,8 C 0,0 km/h (0 Bft)
12.11.2014 13:50 14,0 C 57 % 1006,2 hPa 0,0 l/m 0,0 km/h (0 Bft) SO 135 5,6 C 7,8 C 0,0 km/h (0 Bft)
12.11.2014 13:55 13,5 C 57 % 1006,4 hPa 0,0 l/m 0,0 km/h (0 Bft) SO 135 5,2 C 7,8 C 0,0 km/h (0 Bft)
12.11.2014 14:00 13,5 C 58 % 1006,4 hPa 0,0 l/m 0,0 km/h (0 Bft) SO 135 5,4 C 7,8 C 0,0 km/h (0 Bft)
12.11.2014 14:05 14,0 C 56 % 1006,4 hPa 0,0 l/m 0,0 km/h (0 Bft) SO 135 5,4 C 7,8 C 0,0 km/h (0 Bft)
12.11.2014 14:10 14,4 C 57 % 1006,4 hPa 0,0 l/m 0,0 km/h (0 Bft) SO 135 6,0 C 7,8 C 0,0 km/h (0 Bft)
12.11.2014 14:15 14,5 C 56 % 1006,7 hPa 0,0 l/m 0,0 km/h (0 Bft) SO 135 5,8 C 7,8 C 0,0 km/h (0 Bft)
12.11.2014 14:20 13,9 C 56 % 1006,7 hPa 0,0 l/m 0,0 km/h (0 Bft) SO 135 5,3 C 7,8 C 0,0 km/h (0 Bft)
12.11.2014 14:25 13,8 C 57 % 1006,7 hPa 0,0 l/m 0,0 km/h (0 Bft) SO 135 5,4 C 7,8 C 0,0 km/h (0 Bft)
12.11.2014 14:30 13,4 C 57 % 1006,7 hPa 0,0 l/m 0,0 km/h (0 Bft) SO 135 5,1 C 7,8 C 0,0 km/h (0 Bft)
12.11.2014 14:35 13,1 C 59 % 1006,9 hPa 0,0 l/m 0,0 km/h (0 Bft) SO 135 5,3 C 7,8 C 0,0 km/h (0 Bft)
12.11.2014 14:40 12,9 C 59 % 1006,9 hPa 0,0 l/m 0,0 km/h (0 Bft) SO 135 5,1 C 7,8 C 0,0 km/h (0 Bft)
12.11.2014 14:45 12,8 C 59 % 1006,9 hPa 0,0 l/m 0,0 km/h (0 Bft) SO 135 5,0 C 7,8 C 0,0 km/h (0 Bft)
12.11.2014 14:50 12,5 C 62 % 1006,9 hPa 0,0 l/m 0,0 km/h (0 Bft) SO 135 5,4 C 7,8 C 0,0 km/h (0 Bft)
12.11.2014 14:55 12,4 C 62 % 1007,1 hPa 0,0 l/m 0,0 km/h (0 Bft) SO 135 5,3 C 7,8 C 0,0 km/h (0 Bft)
12.11.2014 15:00 12,2 C 63 % 1007,1 hPa 0,0 l/m 0,0 km/h (0 Bft) SO 135 5,4 C 7,8 C 0,0 km/h (0 Bft)
12.11.2014 15:05 12,1 C 63 % 1007,1 hPa 0,0 l/m 0,0 km/h (0 Bft) SO 135 5,3 C 7,8 C 0,0 km/h (0 Bft)
12.11.2014 15:10 12,0 C 64 % 1007,1 hPa 0,0 l/m 0,0 km/h (0 Bft) SO 135 5,4 C 7,8 C 0,0 km/h (0 Bft)
12.11.2014 15:13 11,9 C 65 % 1007,2 hPa 0,0 l/m 0,0 km/h (0 Bft) SO 135 5,5 C 7,8 C 0,0 km/h (0 Bft)
12.11.2014 15:15 11,9 C 65 % 1007,2 hPa 0,0 l/m 0,0 km/h (0 Bft) SO 135 5,5 C 7,8 C 0,0 km/h (0 Bft)
12.11.2014 15:20 11,8 C 67 % 1007,2 hPa 0,0 l/m 0,0 km/h (0 Bft) SO 135 5,9 C 7,8 C 0,0 km/h (0 Bft)
12.11.2014 15:25 11,7 C 67 % 1007,2 hPa 0,0 l/m 0,0 km/h (0 Bft) SO 135 5,8 C 7,8 C 0,0 km/h (0 Bft)
12.11.2014 15:30 11,5 C 69 % 1007,2 hPa 0,0 l/m 0,0 km/h (0 Bft) SO 135 6,0 C 7,8 C 0,0 km/h (0 Bft)
12.11.2014 15:35 11,4 C 69 % 1007,2 hPa 0,0 l/m 0,0 km/h (0 Bft) SO 135 5,9 C 7,8 C 0,0 km/h (0 Bft)
12.11.2014 15:40 11,2 C 70 % 1007,2 hPa 0,0 l/m 0,0 km/h (0 Bft) SO 135 5,9 C 7,8 C 0,0 km/h (0 Bft)
12.11.2014 15:45 11,0 C 71 % 1007,2 hPa 0,0 l/m 0,0 km/h (0 Bft) SO 135 5,9 C 7,8 C 0,0 km/h (0 Bft)
12.11.2014 15:50 10,7 C 72 % 1007,2 hPa 0,0 l/m 0,0 km/h (0 Bft) SO 135 5,9 C 7,8 C 0,0 km/h (0 Bft)
12.11.2014 15:55 10,7 C 71 % 1007,4 hPa 0,0 l/m 0,0 km/h (0 Bft) SO 135 5,7 C 7,8 C 0,0 km/h (0 Bft)
12.11.2014 16:00 10,4 C 71 % 1007,4 hPa 0,0 l/m 0,0 km/h (0 Bft) SO 135 5,4 C 7,8 C 0,0 km/h (0 Bft)
12.11.2014 16:05 10,2 C 69 % 1007,4 hPa 0,0 l/m 0,0 km/h (0 Bft) SO 135 4,8 C 7,8 C 0,0 km/h (0 Bft)
12.11.2014 16:10 9,8 C 69 % 1007,4 hPa 0,0 l/m 0,0 km/h (0 Bft) SO 135 4,4 C 7,8 C 0,0 km/h (0 Bft)
12.11.2014 16:15 9,8 C 69 % 1007,8 hPa 0,0 l/m 0,0 km/h (0 Bft) SO 135 4,4 C 7,8 C 0,0 km/h (0 Bft)
12.11.2014 16:20 9,6 C 69 % 1007,8 hPa 0,0 l/m 0,0 km/h (0 Bft) SO 135 4,2 C 7,8 C 0,0 km/h (0 Bft)
12.11.2014 16:25 9,5 C 69 % 1007,8 hPa 0,0 l/m 0,0 km/h (0 Bft) SO 135 4,1 C 7,8 C 0,0 km/h (0 Bft)
12.11.2014 16:30 8,8 C 70 % 1007,8 hPa 0,0 l/m 0,0 km/h (0 Bft) SO 135 3,6 C 7,8 C 0,0 km/h (0 Bft)
12.11.2014 16:35 8,6 C 71 % 1007,8 hPa 0,0 l/m 0,0 km/h (0 Bft) SO 135 3,6 C 7,8 C 0,0 km/h (0 Bft)
12.11.2014 16:40 8,4 C 73 % 1007,8 hPa 0,0 l/m 0,0 km/h (0 Bft) SO 135 3,8 C 7,8 C 0,0 km/h (0 Bft)
12.11.2014 16:45 8,3 C 73 % 1007,8 hPa 0,0 l/m 0,0 km/h (0 Bft) SO 135 3,8 C 7,8 C 0,0 km/h (0 Bft)
12.11.2014 16:50 8,1 C 74 % 1007,8 hPa 0,0 l/m 0,0 km/h (0 Bft) SO 135 3,8 C 7,8 C 0,0 km/h (0 Bft)
12.11.2014 16:55 7,7 C 74 % 1007,8 hPa 0,0 l/m 0,0 km/h (0 Bft) SO 135 3,4 C 7,8 C 0,0 km/h (0 Bft)
12.11.2014 17:00 7,6 C 75 % 1007,8 hPa 0,0 l/m 0,0 km/h (0 Bft) SO 135 3,5 C 7,8 C 0,0 km/h (0 Bft)
12.11.2014 17:05 7,9 C 77 % 1007,8 hPa 0,0 l/m 0,0 km/h (0 Bft) SO 135 4,1 C 7,8 C 0,0 km/h (0 Bft)
12.11.2014 17:10 7,6 C 76 % 1007,8 hPa 0,0 l/m 0,0 km/h (0 Bft) SO 135 3,6 C 7,8 C 0,0 km/h (0 Bft)
12.11.2014 17:15 7,3 C 76 % 1007,9 hPa 0,0 l/m 0,0 km/h (0 Bft) SO 135 3,4 C 7,8 C 0,0 km/h (0 Bft)
12.11.2014 17:20 7,4 C 77 % 1007,9 hPa 0,0 l/m 0,0 km/h (0 Bft) SO 135 3,6 C 7,8 C 0,0 km/h (0 Bft)
12.11.2014 17:25 7,3 C 78 % 1007,9 hPa 0,0 l/m 0,0 km/h (0 Bft) SO 135 3,7 C 7,8 C 0,0 km/h (0 Bft)
12.11.2014 17:30 7,3 C 78 % 1007,9 hPa 0,0 l/m 0,0 km/h (0 Bft) SO 135 3,7 C 7,8 C 0,0 km/h (0 Bft)
12.11.2014 17:35 7,1 C 78 % 1008,2 hPa 0,0 l/m 0,0 km/h (0 Bft) SO 135 3,5 C 7,8 C 0,0 km/h (0 Bft)
12.11.2014 17:40 6,8 C 79 % 1008,2 hPa 0,0 l/m 0,0 km/h (0 Bft) SO 135 3,4 C 7,8 C 0,0 km/h (0 Bft)
12.11.2014 17:45 6,6 C 79 % 1008,2 hPa 0,0 l/m 0,0 km/h (0 Bft) SO 135 3,2 C 7,8 C 0,0 km/h (0 Bft)
12.11.2014 17:50 6,8 C 80 % 1008,2 hPa 0,0 l/m 0,0 km/h (0 Bft) SO 135 3,6 C 7,8 C 0,0 km/h (0 Bft)
12.11.2014 17:55 6,6 C 79 % 1008,2 hPa 0,0 l/m 0,0 km/h (0 Bft) SO 135 3,2 C 7,8 C 0,0 km/h (0 Bft)
12.11.2014 18:00 6,5 C 80 % 1008,2 hPa 0,0 l/m 0,0 km/h (0 Bft) SO 135 3,3 C 7,8 C 0,0 km/h (0 Bft)
12.11.2014 18:05 6,6 C 80 % 1008,2 hPa 0,0 l/m 0,0 km/h (0 Bft) SO 135 3,4 C 7,8 C 0,0 km/h (0 Bft)
12.11.2014 18:10 6,5 C 80 % 1008,2 hPa 0,0 l/m 0,0 km/h (0 Bft) SO 135 3,3 C 7,8 C 0,0 km/h (0 Bft)
12.11.2014 18:13 6,6 C 81 % 1008,3 hPa 0,0 l/m 0,0 km/h (0 Bft) SO 135 3,6 C 7,8 C 0,0 km/h (0 Bft)
12.11.2014 18:20 6,5 C 81 % 1008,3 hPa 0,0 l/m 0,0 km/h (0 Bft) SO 135 3,5 C 7,8 C 0,0 km/h (0 Bft)
12.11.2014 18:25 6,3 C 81 % 1008,3 hPa 0,0 l/m 0,0 km/h (0 Bft) SO 135 3,3 C 7,8 C 0,0 km/h (0 Bft)
12.11.2014 18:30 6,3 C 82 % 1008,3 hPa 0,0 l/m 0,0 km/h (0 Bft) SO 135 3,5 C 7,8 C 0,0 km/h (0 Bft)
12.11.2014 18:35 6,3 C 82 % 1008,4 hPa 0,0 l/m 0,0 km/h (0 Bft) SO 135 3,5 C 7,8 C 0,0 km/h (0 Bft)
12.11.2014 18:40 6,4 C 82 % 1008,4 hPa 0,0 l/m 0,0 km/h (0 Bft) SO 135 3,6 C 7,8 C 0,0 km/h (0 Bft)
12.11.2014 18:45 6,2 C 82 % 1008,4 hPa 0,0 l/m 0,0 km/h (0 Bft) SO 135 3,4 C 7,8 C 0,0 km/h (0 Bft)
12.11.2014 18:50 6,4 C 82 % 1008,4 hPa 0,0 l/m 0,0 km/h (0 Bft) SO 135 3,6 C 7,8 C 0,0 km/h (0 Bft)
12.11.2014 18:55 6,2 C 83 % 1008,6 hPa 0,0 l/m 0,0 km/h (0 Bft) SO 135 3,5 C 7,8 C 0,0 km/h (0 Bft)
12.11.2014 19:00 6,2 C 83 % 1008,6 hPa 0,0 l/m 0,0 km/h (0 Bft) SO 135 3,5 C 7,8 C 0,0 km/h (0 Bft)
12.11.2014 19:05 6,1 C 83 % 1008,6 hPa 0,0 l/m 0,0 km/h (0 Bft) SO 135 3,4 C 7,8 C 0,0 km/h (0 Bft)
12.11.2014 19:10 6,0 C 83 % 1008,6 hPa 0,0 l/m 0,0 km/h (0 Bft) SO 135 3,3 C 7,8 C 0,0 km/h (0 Bft)
12.11.2014 19:15 6,1 C 84 % 1008,5 hPa 0,0 l/m 0,0 km/h (0 Bft) SO 135 3,6 C 7,8 C 0,0 km/h (0 Bft)
12.11.2014 19:20 6,0 C 84 % 1008,5 hPa 0,0 l/m 0,0 km/h (0 Bft) SO 135 3,5 C 7,8 C 0,0 km/h (0 Bft)
12.11.2014 19:25 6,1 C 84 % 1008,5 hPa 0,0 l/m 0,0 km/h (0 Bft) SO 135 3,6 C 7,8 C 0,0 km/h (0 Bft)
12.11.2014 19:30 5,9 C 85 % 1008,5 hPa 0,0 l/m 0,0 km/h (0 Bft) SO 135 3,6 C 7,8 C 0,0 km/h (0 Bft)
12.11.2014 19:35 6,1 C 84 % 1008,6 hPa 0,0 l/m 0,0 km/h (0 Bft) SO 135 3,6 C 7,8 C 0,0 km/h (0 Bft)
12.11.2014 19:40 6,2 C 85 % 1008,6 hPa 0,0 l/m 0,0 km/h (0 Bft) SO 135 3,9 C 7,8 C 0,0 km/h (0 Bft)
12.11.2014 19:45 6,3 C 85 % 1008,6 hPa 0,0 l/m 0,0 km/h (0 Bft) SO 135 4,0 C 7,8 C 0,0 km/h (0 Bft)
12.11.2014 19:50 6,4 C 85 % 1008,6 hPa 0,0 l/m 0,0 km/h (0 Bft) SO 135 4,1 C 7,8 C 0,0 km/h (0 Bft)
12.11.2014 19:55 6,4 C 84 % 1008,8 hPa 0,0 l/m 0,0 km/h (0 Bft) SO 135 3,9 C 7,8 C 0,0 km/h (0 Bft)
12.11.2014 20:00 6,4 C 84 % 1008,8 hPa 0,0 l/m 0,0 km/h (0 Bft) SO 135 3,9 C 7,8 C 0,0 km/h (0 Bft)
12.11.2014 20:05 6,2 C 84 % 1008,8 hPa 0,0 l/m 0,0 km/h (0 Bft) SO 135 3,7 C 7,8 C 0,0 km/h (0 Bft)
12.11.2014 20:10 6,3 C 84 % 1008,8 hPa 0,0 l/m 0,0 km/h (0 Bft) SO 135 3,8 C 7,8 C 0,0 km/h (0 Bft)
12.11.2014 20:15 6,4 C 84 % 1008,7 hPa 0,0 l/m 0,0 km/h (0 Bft) SO 135 3,9 C 7,8 C 0,0 km/h (0 Bft)
12.11.2014 20:20 6,4 C 84 % 1008,7 hPa 0,0 l/m 0,0 km/h (0 Bft) SO 135 3,9 C 7,8 C 0,0 km/h (0 Bft)
12.11.2014 20:25 6,6 C 84 % 1008,7 hPa 0,0 l/m 0,0 km/h (0 Bft) SO 135 4,1 C 7,8 C 0,0 km/h (0 Bft)
12.11.2014 20:30 6,8 C 85 % 1008,7 hPa 0,0 l/m 0,0 km/h (0 Bft) SO 135 4,5 C 7,8 C 0,0 km/h (0 Bft)
12.11.2014 20:35 6,9 C 85 % 1008,8 hPa 0,0 l/m 0,0 km/h (0 Bft) SO 135 4,6 C 7,8 C 0,0 km/h (0 Bft)
12.11.2014 20:40 7,1 C 84 % 1008,8 hPa 0,0 l/m 0,0 km/h (0 Bft) SO 135 4,6 C 7,8 C 0,0 km/h (0 Bft)
12.11.2014 20:45 7,1 C 84 % 1008,8 hPa 0,0 l/m 0,0 km/h (0 Bft) SO 135 4,6 C 7,8 C 0,0 km/h (0 Bft)
12.11.2014 20:50 7,3 C 84 % 1008,8 hPa 0,0 l/m 0,0 km/h (0 Bft) SO 135 4,8 C 7,8 C 0,0 km/h (0 Bft)
12.11.2014 20:55 7,3 C 83 % 1009,2 hPa 0,0 l/m 0,0 km/h (0 Bft) SO 135 4,6 C 7,8 C 0,0 km/h (0 Bft)
12.11.2014 21:00 7,2 C 83 % 1009,2 hPa 0,0 l/m 0,0 km/h (0 Bft) SO 135 4,5 C 7,8 C 0,0 km/h (0 Bft)
12.11.2014 21:05 7,2 C 83 % 1009,2 hPa 0,0 l/m 0,0 km/h (0 Bft) SO 135 4,5 C 7,8 C 0,0 km/h (0 Bft)
12.11.2014 21:10 7,2 C 83 % 1009,2 hPa 0,0 l/m 0,0 km/h (0 Bft) SO 135 4,5 C 7,8 C 0,0 km/h (0 Bft)
12.11.2014 21:15 7,2 C 83 % 1009,3 hPa 0,0 l/m 0,0 km/h (0 Bft) SO 135 4,5 C 7,8 C 0,0 km/h (0 Bft)
12.11.2014 21:20 7,2 C 83 % 1009,3 hPa 0,0 l/m 0,0 km/h (0 Bft) SO 135 4,5 C 7,8 C 0,0 km/h (0 Bft)
12.11.2014 21:25 7,2 C 83 % 1009,3 hPa 0,0 l/m 0,0 km/h (0 Bft) SO 135 4,5 C 7,8 C 0,0 km/h (0 Bft)
12.11.2014 21:30 7,4 C 83 % 1009,3 hPa 0,0 l/m 0,0 km/h (0 Bft) SO 135 4,7 C 7,8 C 0,0 km/h (0 Bft)
12.11.2014 21:35 7,5 C 83 % 1009,5 hPa 0,0 l/m 0,0 km/h (0 Bft) SO 135 4,8 C 7,8 C 0,0 km/h (0 Bft)
12.11.2014 21:40 7,6 C 83 % 1009,5 hPa 0,0 l/m 0,0 km/h (0 Bft) SO 135 4,9 C 7,8 C 0,0 km/h (0 Bft)
12.11.2014 21:45 7,6 C 83 % 1009,5 hPa 0,0 l/m 0,0 km/h (0 Bft) SO 135 4,9 C 7,8 C 0,0 km/h (0 Bft)
12.11.2014 21:50 7,6 C 83 % 1009,5 hPa 0,0 l/m 0,0 km/h (0 Bft) SO 135 4,9 C 7,8 C 0,0 km/h (0 Bft)
12.11.2014 21:55 7,6 C 83 % 1009,7 hPa 0,0 l/m 0,0 km/h (0 Bft) SO 135 4,9 C 7,8 C 0,0 km/h (0 Bft)
12.11.2014 22:00 7,7 C 83 % 1009,7 hPa 0,0 l/m 0,0 km/h (0 Bft) SO 135 5,0 C 7,8 C 0,0 km/h (0 Bft)
12.11.2014 22:05 7,7 C 82 % 1009,7 hPa 0,0 l/m 0,0 km/h (0 Bft) SO 135 4,8 C 7,8 C 0,0 km/h (0 Bft)
12.11.2014 22:10 7,7 C 82 % 1009,7 hPa 0,0 l/m 0,0 km/h (0 Bft) SO 135 4,8 C 7,8 C 0,0 km/h (0 Bft)
12.11.2014 22:15 7,7 C 82 % 1009,9 hPa 0,0 l/m 0,0 km/h (0 Bft) SO 135 4,8 C 7,8 C 0,0 km/h (0 Bft)
12.11.2014 22:20 7,6 C 82 % 1009,9 hPa 0,0 l/m 0,0 km/h (0 Bft) SO 135 4,7 C 7,8 C 0,0 km/h (0 Bft)
12.11.2014 22:25 7,6 C 82 % 1009,9 hPa 0,0 l/m 0,0 km/h (0 Bft) SO 135 4,7 C 7,8 C 0,0 km/h (0 Bft)
12.11.2014 22:30 7,7 C 82 % 1009,9 hPa 0,0 l/m 0,0 km/h (0 Bft) SO 135 4,8 C 7,8 C 0,0 km/h (0 Bft)
12.11.2014 22:35 7,7 C 82 % 1010,0 hPa 0,0 l/m 0,0 km/h (0 Bft) SO 135 4,8 C 7,8 C 0,0 km/h (0 Bft)
12.11.2014 22:40 7,8 C 82 % 1010,0 hPa 0,0 l/m 0,0 km/h (0 Bft) SO 135 4,9 C 7,8 C 0,0 km/h (0 Bft)
12.11.2014 22:45 7,7 C 82 % 1010,0 hPa 0,0 l/m 0,0 km/h (0 Bft) SO 135 4,8 C 7,8 C 0,0 km/h (0 Bft)
12.11.2014 22:50 7,8 C 82 % 1010,0 hPa 0,0 l/m 0,0 km/h (0 Bft) SO 135 4,9 C 7,8 C 0,0 km/h (0 Bft)
12.11.2014 22:55 7,7 C 82 % 1010,1 hPa 0,0 l/m 0,0 km/h (0 Bft) SO 135 4,8 C 7,8 C 0,0 km/h (0 Bft)
12.11.2014 23:00 7,7 C 82 % 1010,1 hPa 0,0 l/m 0,0 km/h (0 Bft) SO 135 4,8 C 7,8 C 0,0 km/h (0 Bft)
12.11.2014 23:05 7,7 C 82 % 1010,1 hPa 0,0 l/m 0,0 km/h (0 Bft) SO 135 4,8 C 7,8 C 0,0 km/h (0 Bft)
12.11.2014 23:10 7,7 C 82 % 1010,1 hPa 0,0 l/m 0,0 km/h (0 Bft) SO 135 4,8 C 7,8 C 0,0 km/h (0 Bft)
12.11.2014 23:15 7,7 C 83 % 1010,2 hPa 0,0 l/m 0,0 km/h (0 Bft) SO 135 5,0 C 7,8 C 0,0 km/h (0 Bft)
12.11.2014 23:20 7,7 C 83 % 1010,2 hPa 0,0 l/m 0,0 km/h (0 Bft) SO 135 5,0 C 7,8 C 0,0 km/h (0 Bft)
12.11.2014 23:25 7,6 C 83 % 1010,2 hPa 0,0 l/m 0,0 km/h (0 Bft) SO 135 4,9 C 7,8 C 0,0 km/h (0 Bft)
12.11.2014 23:30 7,6 C 83 % 1010,2 hPa 0,0 l/m 0,0 km/h (0 Bft) SO 135 4,9 C 7,8 C 0,0 km/h (0 Bft)
12.11.2014 23:35 7,6 C 83 % 1010,3 hPa 0,0 l/m 0,0 km/h (0 Bft) SO 135 4,9 C 7,8 C 0,0 km/h (0 Bft)
12.11.2014 23:40 7,5 C 83 % 1010,3 hPa 0,0 l/m 0,0 km/h (0 Bft) SO 135 4,8 C 7,8 C 0,0 km/h (0 Bft)
12.11.2014 23:45 7,5 C 83 % 1010,3 hPa 0,0 l/m 0,0 km/h (0 Bft) SO 135 4,8 C 7,8 C 0,0 km/h (0 Bft)
12.11.2014 23:50 7,5 C 83 % 1010,3 hPa 0,0 l/m 0,0 km/h (0 Bft) SO 135 4,8 C 7,8 C 0,0 km/h (0 Bft)
12.11.2014 23:55 7,5 C 83 % 1010,4 hPa 0,0 l/m 0,0 km/h (0 Bft) SO 135 4,8 C 7,8 C 0,0 km/h (0 Bft)
_ Min-Zeit 19:30 12:35 05:50 - 23:55 - - 02:35 23:55 23:55
Minimum _ 5,9 C 53 % 1004,6 hPa - 0,0 km/h (0 Bft) - - 2,8 C 7,8 C 0,0 km/h (0 Bft)
_ Max-Zeit 14:15 20:35 23:55 23:55 23:55 - - 10:20 23:55 23:55
Maximum _ 14,5 C 85 % 1010,4 hPa 0,0 l/m 0,0 km/h
SO (0 Bft)
- - 6,2 C 7,8 C 0,0 km/h
SO (0 Bft)
Durchschnitt _ 9,3 C 72 % 1006,8 hPa #0,0 l/m 0,0 km/h (0 Bft) - - - 4,3 C 7,8 C 0,0 km/h (0 Bft)